Change the Weather History Date:

Saturday, April 27, 2013

  Actual Average Record
Temperature  
Mean Temperature 57 °F -  
Max Temperature 69 °F 68 °F 87 °F (2001)
Min Temperature 48 °F 43 °F 32 °F (2005)
Degree Days  
Heating Degree Days 8    
Growing Degree Days 7 (Base 50)    
Moisture  
Dew Point 48 °F    
Average Humidity 80    
Maximum Humidity 94    
Minimum Humidity 52    
Precipitation  
Precipitation 0.01 in - - ()
Sea Level Pressure  
Sea Level Pressure 30.10 in    
Wind  
Wind Speed 6 mph (NNE)    
Max Wind Speed 14 mph    
Max Gust Speed 21 mph    
Visibility 8 miles    
Events Rain    
Averages and records for this station are not official NWS values.
T = Trace of Precipitation, MM = Missing Value Source: NWS Daily Summary

Daily Weather History Graph

Daily Weather History Graph

Search for Another Location

Airport or City:

Trip Planner

Search our weather history database for the weather conditions in past years. The results will help you decide how hot, cold, wet, or windy it might be!

Date:

Astronomy

Apr. 27, 2013 Rise Set
Actual Time 6:39 AM CDT 8:18 PM CDT
Civil Twilight 6:11 AM CDT 8:47 PM CDT
Nautical Twilight 5:37 AM CDT 9:21 PM CDT
Astronomical Twilight 5:01 AM CDT 9:57 PM CDT
Moon 10:48 PM CDT (4/27) 8:00 AM CDT (4/27)
Length of Visible Light 14h 35m
Length of Day
13h 39m
Waning Gibbous, 95% of the Moon is Illuminated
Apr 27
Waning Gibbous
May 2
Last Quarter
May 9
New
May 17
First Quarter
May 24
Full

Hourly Weather History & Observations

Time (CDT) Temp. Dew Point Humidity Pressure Visibility Wind Dir Wind Speed Gust Speed Precip Events Conditions
12:11 AM 50.0 °F 48.2 °F 94% 30.17 in 4.0 mi NNE 6.9 mph - 0.01 in Rain Light Rain
12:52 AM 50.0 °F 48.0 °F 93% 30.15 in 3.0 mi NNE 5.8 mph - 0.01 in Rain Light Rain
1:09 AM 50.0 °F 48.2 °F 94% 30.17 in 2.5 mi NNE 4.6 mph - 0.00 in Rain Light Rain
1:21 AM 50.0 °F 48.2 °F 94% 30.17 in 4.0 mi NNE 5.8 mph - 0.00 in Rain Light Rain
1:52 AM 50.0 °F 48.0 °F 93% 30.14 in 6.0 mi NE 5.8 mph - 0.00 in Rain Light Rain
2:52 AM 50.0 °F 48.0 °F 93% 30.13 in 3.0 mi Calm Calm - 0.00 in   Overcast
3:52 AM 50.0 °F 46.9 °F 89% 30.11 in 8.0 mi NNE 4.6 mph - N/A   Overcast
4:52 AM 50.0 °F 46.9 °F 89% 30.11 in 10.0 mi North 5.8 mph - N/A   Overcast
5:28 AM 48.2 °F 46.4 °F 93% 30.13 in 2.0 mi North 6.9 mph - N/A   Overcast
5:45 AM 48.2 °F 46.4 °F 93% 30.13 in 5.0 mi North 6.9 mph - N/A   Overcast
5:52 AM 48.9 °F 46.9 °F 93% 30.12 in 5.0 mi North 5.8 mph - N/A   Overcast
6:35 AM 50.0 °F 46.4 °F 87% 30.13 in 10.0 mi North 6.9 mph - N/A   Overcast
6:52 AM 50.0 °F 46.9 °F 89% 30.12 in 7.0 mi North 6.9 mph - N/A   Overcast
7:52 AM 50.0 °F 46.9 °F 89% 30.13 in 9.0 mi North 6.9 mph - N/A   Overcast
8:52 AM 51.1 °F 48.0 °F 89% 30.14 in 7.0 mi North 10.4 mph - N/A   Overcast
9:52 AM 51.1 °F 48.0 °F 89% 30.14 in 6.0 mi NNW 11.5 mph - N/A   Overcast
10:52 AM 52.0 °F 48.0 °F 86% 30.14 in 10.0 mi NNW 13.8 mph 20.7 mph N/A   Overcast
11:39 AM 53.6 °F 48.2 °F 82% 30.17 in 10.0 mi NNW 11.5 mph - N/A   Overcast
11:52 AM 55.0 °F 48.9 °F 80% 30.14 in 10.0 mi North 9.2 mph - N/A   Overcast
12:04 PM 57.2 °F 48.2 °F 72% 30.16 in 10.0 mi North 8.1 mph - N/A   Overcast
12:52 PM 60.1 °F 48.0 °F 64% 30.12 in 10.0 mi ENE 5.8 mph - N/A   Mostly Cloudy
1:04 PM 60.8 °F 48.2 °F 63% 30.14 in 10.0 mi Calm Calm - N/A   Scattered Clouds
1:52 PM 62.1 °F 48.9 °F 62% 30.09 in 10.0 mi East 3.5 mph - N/A   Clear
2:52 PM 64.0 °F 48.9 °F 58% 30.07 in 10.0 mi ENE 6.9 mph - N/A   Partly Cloudy
3:52 PM 66.0 °F 48.9 °F 54% 30.04 in 10.0 mi WNW 3.5 mph - N/A   Clear
4:52 PM 66.9 °F 48.9 °F 52% 30.01 in 10.0 mi Calm Calm - N/A   Clear
5:52 PM 66.9 °F 50.0 °F 54% 30.00 in 10.0 mi Calm Calm - N/A   Clear
6:52 PM 66.0 °F 48.9 °F 54% 30.00 in 10.0 mi South 5.8 mph - N/A   Clear
7:52 PM 63.0 °F 51.1 °F 65% 29.98 in 10.0 mi SE 5.8 mph - N/A   Clear
8:52 PM 57.9 °F 50.0 °F 75% 29.98 in 10.0 mi SE 6.9 mph - N/A   Clear
9:52 PM 54.0 °F 48.0 °F 80% 30.00 in 10.0 mi ESE 3.5 mph - N/A   Clear
10:52 PM 53.1 °F 48.9 °F 86% 30.00 in 10.0 mi ESE 5.8 mph - N/A   Clear
11:52 PM 52.0 °F 48.9 °F 89% 30.00 in 10.0 mi SE 5.8 mph - N/A   Clear